DateTimeUTC,F1_A11,F1_S11,BsB_S11,BsG_S11,BsR_S11,BbsB_S11,BbsG_S11,BbsR_S11,BaB_A11,BaG_A11,BaR_A11,Tu_S11,T_S11,Uu_S11,U_S11,P_S11,T1_A11
2021-05-07T00:00:00Z,00000200,21000000,,,,,,,-000.02,-000.52,-000.14,17.4,24.5,,00.0,0673.2,31.1
2021-05-07T00:01:00Z,00000200,21000000,,,,,,,-000.56,0000.16,0000.15,17.4,24.6,,00.0,0673.2,31.1
2021-05-07T00:02:00Z,00000200,21000000,,,,,,,-000.10,-000.31,-000.13,17.4,24.6,,00.0,0673.2,31.1
2021-05-07T00:03:00Z,00000200,61000000,,,,,,,0000.99,0000.75,0000.62,17.4,24.6,,00.0,0673.2,31.1
2021-05-07T00:04:00Z,00000200,41000000,0005.68,0004.09,0002.29,0001.27,0000.70,0000.22,0000.98,0001.02,0000.85,17.7,24.5,00.0,00.0,0674.1,31.1
2021-05-07T00:05:00Z,00000200,01000000,0006.21,0004.05,0002.57,0000.71,0000.42,0000.58,0001.40,0001.32,0000.64,17.7,24.4,00.0,00.0,0674.2,31.1
2021-05-07T00:06:00Z,00000200,01000000,0006.34,0004.23,0002.58,0000.80,0000.34,0000.77,0000.90,0000.79,0000.83,17.7,24.3,00.0,00.0,0674.2,31.1
2021-05-07T00:07:00Z,00000200,01000000,0005.99,0004.16,0002.07,0000.79,0000.57,0000.22,0001.14,0000.85,0000.47,17.6,24.3,00.0,00.0,0674.2,31.1
2021-05-07T00:08:00Z,00000200,01000000,0006.38,0004.01,0002.32,0001.50,0000.59,0000.54,0000.92,0000.62,0000.70,17.6,24.3,00.0,00.0,0674.2,31.0
2021-05-07T00:09:00Z,00000200,01000000,0005.65,0004.14,0002.16,0000.71,0000.51,0000.64,0001.31,0001.08,0000.92,17.6,24.3,00.0,00.0,0674.2,31.0
2021-05-07T00:10:00Z,00000200,01000000,0006.00,0004.38,0002.36,0001.33,0000.59,0000.54,0000.99,0000.76,0000.72,17.6,24.3,00.0,00.0,0674.2,31.1
2021-05-07T00:11:00Z,00000200,01000000,0006.41,0004.18,0002.18,0000.84,0000.68,0000.41,0001.17,0001.15,0000.72,17.6,24.3,00.0,00.0,0674.2,31.1
2021-05-07T00:12:00Z,00000200,01000000,0006.17,0003.98,0001.90,0000.79,0000.48,0000.11,0000.90,0001.25,0000.74,17.7,24.3,,00.0,0674.2,31.1
2021-05-07T00:13:00Z,00000200,01000000,0005.83,0004.08,0002.04,0001.02,0000.69,0000.36,0001.09,0000.91,0000.77,17.7,24.3,00.0,00.0,0674.2,31.1
2021-05-07T00:14:00Z,00000200,01000000,0006.40,0004.09,0002.35,0000.59,0000.39,0000.55,0001.45,0000.92,0000.69,17.7,24.3,00.0,00.0,0674.2,31.1
2021-05-07T00:15:00Z,00000200,01000000,0005.59,0004.35,0002.22,0000.87,0000.52,0000.56,0000.84,0000.99,0000.67,17.7,24.3,,00.0,0674.2,31.1
2021-05-07T00:16:00Z,00000200,01000000,0005.72,0004.18,0002.34,0001.50,0000.79,0000.39,0001.51,0000.88,0000.82,17.6,24.3,,00.0,0674.2,31.0
2021-05-07T00:17:00Z,00000200,01000000,0006.33,0004.05,0002.34,0001.05,0000.63,0000.40,0000.77,0001.12,0000.79,17.6,24.3,00.0,00.0,0674.2,31.0
2021-05-07T00:18:00Z,00000200,01000000,0006.04,0004.15,0002.43,0001.12,0000.68,0000.39,0001.01,0000.79,0000.86,17.6,24.2,00.0,00.0,0674.2,31.0
2021-05-07T00:19:00Z,00000200,01000000,0006.16,0003.93,0002.30,0001.16,0000.47,0000.34,0001.01,0001.08,0000.41,17.5,24.2,00.0,00.0,0674.2,31.0
2021-05-07T00:20:00Z,00000200,01000000,0005.61,0003.88,0002.16,0000.88,0000.53,0000.54,0001.05,0000.80,0000.77,17.5,24.2,00.0,00.0,0674.2,31.0
2021-05-07T00:21:00Z,00000200,01000000,0006.25,0004.05,0002.21,0000.95,0000.38,0000.47,0000.87,0000.75,0000.92,17.4,24.1,,00.0,0674.2,31.0
2021-05-07T00:22:00Z,00000200,01000000,0006.44,0004.11,0002.14,0000.30,0000.62,0000.31,0001.09,0000.92,0000.33,17.4,24.1,,00.0,0674.3,31.0
2021-05-07T00:23:00Z,00000200,01000000,0006.56,0004.11,0002.17,0001.39,0000.65,0000.26,0000.57,0000.50,0000.40,17.3,24.1,00.0,00.0,0674.3,31.0
2021-05-07T00:24:00Z,00000200,01000000,0006.33,0004.13,0002.48,0000.88,0000.65,0000.53,0000.94,0001.21,0000.40,17.3,24.1,,00.0,0674.3,31.0
2021-05-07T00:25:00Z,00000200,01000000,0006.04,0003.79,0002.45,0001.12,0000.45,0000.92,0001.46,0000.90,0000.83,17.3,24.1,,00.0,0674.3,31.0
2021-05-07T00:26:00Z,00000200,01000000,0005.42,0003.99,0001.68,0000.84,0000.57,0000.36,0000.47,0000.60,0000.50,17.4,24.1,,00.0,0674.2,31.0
2021-05-07T00:27:00Z,00000200,01000000,0004.71,0002.94,0001.32,0000.62,0000.31,0000.21,0000.44,0000.39,0000.53,17.4,24.1,,00.0,0674.3,31.0
2021-05-07T00:28:00Z,00000200,01000000,0003.81,0002.69,0001.31,0000.52,0000.39,0000.26,0000.95,0001.13,0000.66,17.5,24.1,,00.0,0674.3,31.1
2021-05-07T00:29:00Z,00000200,01000000,0004.39,0002.64,0001.34,0001.01,0000.55,0000.30,0000.83,-000.19,0000.04,17.5,24.2,,00.0,0674.3,31.1
2021-05-07T00:30:00Z,00000200,01000000,0004.44,0002.64,0001.04,0000.69,0000.24,0000.39,0000.41,0000.98,0000.72,17.6,24.2,,00.0,0674.3,31.1
2021-05-07T00:31:00Z,00000200,01000000,0002.43,0001.55,0000.43,0000.77,0000.22,0000.29,0000.42,0000.36,0000.09,17.6,24.2,,00.0,0674.3,31.1
2021-05-07T00:32:00Z,00000200,01000000,0001.24,0000.99,0000.36,0000.83,0000.11,0000.19,0000.42,0000.11,-000.01,17.5,24.2,,00.0,0674.2,31.0
2021-05-07T00:33:00Z,00000200,01000000,0002.18,0000.98,0000.59,0000.88,0000.43,-000.11,0000.73,0000.62,0000.80,17.5,24.1,,00.0,0674.2,31.0
2021-05-07T00:34:00Z,00000200,01000000,0001.87,0001.05,0000.45,0000.21,0000.17,0000.32,0000.14,0000.41,0000.34,17.4,24.1,,00.0,0674.2,31.0
2021-05-07T00:35:00Z,00000200,01000000,0002.11,0001.21,0000.44,0000.74,0000.23,0000.31,0000.57,0000.33,0000.06,17.4,24.1,,00.0,0674.2,31.0
2021-05-07T00:36:00Z,00000200,01000000,0001.99,0001.53,0000.77,0000.20,0000.05,0000.32,0000.65,0000.59,0000.10,17.3,24.0,,00.0,0674.3,31.0
2021-05-07T00:37:00Z,00000200,01000000,0004.49,0002.02,0000.89,0000.78,0000.19,0000.26,0000.61,-000.01,0000.57,17.3,24.0,,00.0,0674.3,31.0
2021-05-07T00:38:00Z,00000200,01000000,0003.24,0001.79,0000.96,0000.24,0000.43,0000.45,0000.26,0000.56,0000.13,17.2,24.0,,00.0,0674.3,31.0
2021-05-07T00:39:00Z,00000200,01000000,0002.84,0001.92,0000.93,0000.21,0000.37,0000.28,0000.90,0000.76,0000.43,17.2,23.9,,00.0,0674.2,31.0
2021-05-07T00:40:00Z,00000200,01000000,0003.27,0002.03,0000.92,0000.68,0000.36,0000.39,0000.30,0000.90,0000.64,17.2,24.0,,00.0,0674.3,31.0
2021-05-07T00:41:00Z,00000200,01000000,0003.88,0002.39,0000.85,0001.20,0000.43,0000.13,0000.65,0000.66,0000.18,17.3,24.0,,00.0,0674.3,31.0
2021-05-07T00:42:00Z,00000200,01000000,0004.64,0002.41,0001.38,0001.31,0000.39,0000.43,0001.25,0000.37,0000.67,17.3,24.0,,00.0,0674.3,31.0
2021-05-07T00:43:00Z,00000200,01000000,0003.93,0002.07,0001.06,0000.72,0000.58,0000.57,0001.05,0000.82,0000.44,17.3,24.0,,00.0,0674.3,31.0
2021-05-07T00:44:00Z,00000200,01000000,0005.08,0002.82,0001.31,0001.80,0000.42,0000.29,0000.96,0001.24,0001.12,17.4,24.1,,00.0,0674.3,31.1
2021-05-07T00:45:00Z,00000200,01000000,0004.51,0002.62,0001.18,0000.44,0000.30,0000.14,0002.31,0002.20,0001.90,17.5,24.1,,00.0,0674.3,31.1
2021-05-07T00:46:00Z,00000200,01000000,0004.99,0003.66,0001.54,0001.54,0000.74,0000.44,0013.48,0012.30,0009.27,17.5,24.1,,00.0,0674.3,31.1
2021-05-07T00:47:00Z,00000200,01000000,0008.05,0005.93,0003.17,0001.51,0001.22,0000.84,0050.21,0046.18,0036.60,17.6,24.1,,00.0,0674.3,31.1
2021-05-07T00:48:00Z,00000200,01000000,0014.67,0010.12,0006.04,0002.87,0002.44,0001.66,0119.04,0110.58,0087.62,17.6,24.2,,00.0,0674.3,31.1
2021-05-07T00:49:00Z,00000200,01000000,0011.61,0008.60,0004.42,0002.55,0001.93,0001.46,0103.46,0095.31,0076.88,17.7,24.2,,00.0,0674.3,31.1
2021-05-07T00:50:00Z,00000200,01000000,0010.44,0006.79,0003.59,0001.88,0001.67,0001.04,0073.61,0067.89,0053.79,17.7,24.2,,00.0,0674.3,31.1
2021-05-07T00:51:00Z,00000200,01000000,0009.52,0007.04,0003.59,0002.34,0001.56,0000.97,0073.54,0068.14,0054.00,17.6,24.2,,00.0,0674.3,31.1
2021-05-07T00:52:00Z,00000200,01000000,0009.11,0006.27,0003.54,0002.01,0001.31,0000.79,0063.41,0058.18,0047.08,17.6,24.2,,00.0,0674.4,31.1
2021-05-07T00:53:00Z,00000200,01000000,0008.50,0005.99,0003.60,0001.51,0001.09,0001.07,0055.10,0051.27,0040.35,17.5,24.1,,00.0,0674.4,31.0
2021-05-07T00:54:00Z,00000200,01000000,0009.62,0006.43,0003.65,0002.16,0001.44,0001.15,0064.65,0059.29,0047.58,17.5,24.1,,00.0,0674.4,31.0
2021-05-07T00:55:00Z,00000200,01000000,0009.75,0007.07,0004.36,0001.75,0001.46,0001.04,0068.12,0063.37,0050.52,17.5,24.1,,00.0,0674.4,31.1
2021-05-07T00:56:00Z,00000200,01000000,0009.21,0006.22,0003.68,0001.70,0001.35,0000.94,0058.85,0054.24,0043.60,17.6,24.1,,00.0,0674.4,31.1
2021-05-07T00:57:00Z,00000200,41000000,,,,,,,0021.78,0020.30,0016.33,17.7,24.2,,00.0,0674.5,31.1
2021-05-07T00:58:00Z,00000200,61000000,,,,,,,-000.80,0000.01,-000.58,17.3,24.4,,00.0,0673.5,31.1
2021-05-07T00:59:00Z,00000200,21000000,,,,,,,0000.19,-000.67,0000.20,17.3,24.5,,00.0,0673.4,31.1
